Weather History for Conway, SC

Change the Weather History Date:

Monday, April 22, 2013

  Actual Average Record
Temperature  
Mean Temperature 55 °F -  
Max Temperature 66 °F 77 °F 82 °F (2014)
Min Temperature 44 °F 52 °F 44 °F (2013)
Degree Days  
Heating Degree Days 10    
Growing Degree Days 5 (Base 50)    
Moisture  
Dew Point 43 °F    
Average Humidity 65    
Maximum Humidity 87    
Minimum Humidity 52    
Precipitation  
Precipitation 0.00 in - - ()
Sea Level Pressure  
Sea Level Pressure 30.26 in    
Wind  
Wind Speed 11 mph (NNE)    
Max Wind Speed 17 mph    
Max Gust Speed 25 mph    
Visibility 7 miles    
Events      
Averages and records for this station are not official NWS values.
T = Trace of Precipitation, MM = Missing Value Source: NWS Daily Summary

Daily Weather History Graph

Daily Weather History Graph

Search for Another Location

Airport:

Trip Planner

Search our weather history database for the weather conditions in past years. The results will help you decide how hot, cold, wet, or windy it might be!

Date:

Astronomy

Apr. 22, 2013 Rise Set
Actual Time 6:37 AM EDT 7:53 PM EDT
Civil Twilight 6:11 AM EDT 8:19 PM EDT
Nautical Twilight 5:40 AM EDT 8:50 PM EDT
Astronomical Twilight 5:07 AM EDT 9:22 PM EDT
Moon 4:48 PM EDT (4/22) 4:21 AM EDT (4/22)
Length of Visible Light 14h 08m
Length of Day
13h 16m
Waxing Gibbous, 87% of the Moon is Illuminated
Apr 22
Waxing Gibbous
Apr 25
Full
May 2
Last Quarter
May 9
New
May 18
First Quarter

Hourly Weather History & Observations

Time (EDT) Temp. Windchill Dew Point Humidity Pressure Visibility Wind Dir Wind Speed Gust Speed Precip Events Conditions
12:15 AM 51.8 °F - 41.0 °F 67% 30.38 in 7.0 mi NE 11.5 mph 20.7 mph N/A   Clear
12:35 AM 51.8 °F - 37.4 °F 58% 30.38 in 7.0 mi NNE 10.4 mph 23.0 mph N/A   Clear
12:55 AM 50.0 °F - 37.4 °F 62% 30.37 in 7.0 mi NNE 11.5 mph - N/A   Clear
1:15 AM 50.0 °F - 37.4 °F 62% 30.36 in 7.0 mi North 9.2 mph - N/A   Clear
1:35 AM 50.0 °F - 35.6 °F 58% 30.35 in 7.0 mi NNE 10.4 mph - N/A   Clear
1:55 AM 50.0 °F - 37.4 °F 62% 30.34 in 7.0 mi North 9.2 mph 19.6 mph N/A   Clear
2:15 AM 48.2 °F - 35.6 °F 62% 30.33 in 7.0 mi NNE 13.8 mph 17.3 mph N/A   Clear
2:35 AM 48.2 °F - 35.6 °F 62% 30.32 in 7.0 mi NNE 13.8 mph 18.4 mph N/A   Scattered Clouds
2:55 AM 46.4 °F 41.5 °F 35.6 °F 66% 30.32 in 10.0 mi NNE 10.4 mph 17.3 mph N/A   Overcast
3:15 AM 46.4 °F 40.7 °F 35.6 °F 66% 30.32 in 7.0 mi NNE 12.7 mph 16.1 mph N/A   Overcast
3:35 AM 46.4 °F 40.1 °F 35.6 °F 66% 30.31 in 7.0 mi NNE 15.0 mph - N/A   Overcast
3:55 AM 46.4 °F 40.4 °F 37.4 °F 71% 30.31 in 7.0 mi NNE 13.8 mph 17.3 mph N/A   Mostly Cloudy
4:15 AM 46.4 °F 40.7 °F 37.4 °F 71% 30.30 in 7.0 mi NNE 12.7 mph 19.6 mph N/A   Overcast
4:55 AM 44.6 °F 38.8 °F 39.2 °F 81% 30.31 in 7.0 mi NNE 11.5 mph - N/A   Mostly Cloudy
5:15 AM 44.6 °F 40.2 °F 39.2 °F 81% 30.31 in 7.0 mi North 8.1 mph - N/A   Scattered Clouds
5:35 AM 44.6 °F 39.7 °F 39.2 °F 81% 30.30 in 7.0 mi NNE 9.2 mph - N/A   Mostly Cloudy
5:55 AM 44.6 °F 39.2 °F 39.2 °F 81% 30.30 in 7.0 mi North 10.4 mph - N/A   Scattered Clouds
6:15 AM 44.6 °F 40.7 °F 39.2 °F 81% 30.31 in 7.0 mi North 6.9 mph - N/A   Mostly Cloudy
6:35 AM 44.6 °F 39.7 °F 39.2 °F 81% 30.31 in 7.0 mi North 9.2 mph - N/A   Overcast
6:55 AM 44.6 °F 39.7 °F 39.2 °F 81% 30.31 in 7.0 mi NNE 9.2 mph 17.3 mph N/A   Scattered Clouds
7:35 AM 44.6 °F 39.7 °F 39.2 °F 81% 30.32 in 5.0 mi North 9.2 mph 19.6 mph N/A   Haze
8:15 AM 44.6 °F 38.8 °F 41.0 °F 87% 30.31 in 5.0 mi NNE 11.5 mph 18.4 mph N/A   Haze
8:35 AM 46.4 °F 41.1 °F 41.0 °F 81% 30.31 in 5.0 mi NNE 11.5 mph 18.4 mph N/A   Haze
8:55 AM 46.4 °F 39.5 °F 41.0 °F 81% 30.31 in 4.0 mi NNE 17.3 mph 20.7 mph N/A   Haze
9:15 AM 50.0 °F - 41.0 °F 71% 30.32 in 5.0 mi NNE 12.7 mph 18.4 mph N/A   Haze
9:35 AM 50.0 °F - 41.0 °F 71% 30.33 in 7.0 mi NNE 10.4 mph - N/A   Clear
9:55 AM 51.8 °F - 42.8 °F 71% 30.31 in 5.0 mi North 12.7 mph 18.4 mph N/A   Haze
10:15 AM 51.8 °F - 42.8 °F 71% 30.31 in 7.0 mi North 10.4 mph 17.3 mph N/A   Clear
10:35 AM 51.8 °F - 42.8 °F 71% 30.31 in 5.0 mi NNE 10.4 mph 17.3 mph N/A   Haze
10:55 AM 53.6 °F - 42.8 °F 67% 30.30 in 5.0 mi North 10.4 mph 17.3 mph N/A   Haze
11:15 AM 53.6 °F - 42.8 °F 67% 30.29 in 7.0 mi NNE 15.0 mph 21.9 mph N/A   Clear
11:35 AM 57.2 °F - 44.6 °F 63% 30.29 in 7.0 mi North 13.8 mph 20.7 mph N/A   Clear
11:55 AM 59.0 °F - 46.4 °F 63% 30.29 in 7.0 mi NNE 11.5 mph 16.1 mph N/A   Clear
12:15 PM 59.0 °F - 46.4 °F 63% 30.28 in 7.0 mi NNE 15.0 mph 21.9 mph N/A   Clear
12:35 PM 60.8 °F - 46.4 °F 59% 30.27 in 5.0 mi North 12.7 mph - N/A   Haze
12:55 PM 62.6 °F - 46.4 °F 55% 30.27 in 5.0 mi North 11.5 mph 19.6 mph N/A   Haze
1:15 PM 62.6 °F - 46.4 °F 55% 30.26 in 5.0 mi NNE 10.4 mph 17.3 mph N/A   Haze
1:35 PM 62.6 °F - 48.2 °F 59% 30.25 in 5.0 mi NNE 13.8 mph 20.7 mph N/A   Haze
1:55 PM 64.4 °F - 48.2 °F 56% 30.24 in 7.0 mi NNE 13.8 mph 19.6 mph N/A   Clear
2:15 PM 64.4 °F - 48.2 °F 56% 30.24 in 7.0 mi North 12.7 mph 17.3 mph N/A   Clear
2:35 PM 64.4 °F - 48.2 °F 56% 30.23 in 7.0 mi North 11.5 mph 18.4 mph N/A   Clear
2:55 PM 64.4 °F - 48.2 °F 56% 30.21 in 5.0 mi North 9.2 mph 16.1 mph N/A   Haze
3:15 PM 64.4 °F - 48.2 °F 56% 30.20 in 7.0 mi North 6.9 mph 20.7 mph N/A   Clear
3:35 PM 64.4 °F - 48.2 °F 56% 30.20 in 7.0 mi North 11.5 mph 17.3 mph N/A   Clear
3:55 PM 64.4 °F - 48.2 °F 56% 30.19 in 5.0 mi North 13.8 mph 19.6 mph N/A   Haze
4:15 PM 64.4 °F - 46.4 °F 52% 30.18 in 7.0 mi North 9.2 mph - N/A   Clear
4:35 PM 64.4 °F - 46.4 °F 52% 30.18 in 7.0 mi North 10.4 mph 17.3 mph N/A   Clear
4:55 PM 66.2 °F - 48.2 °F 52% 30.17 in 7.0 mi North 11.5 mph 20.7 mph N/A   Clear
5:15 PM 66.2 °F - 48.2 °F 52% 30.17 in 7.0 mi North 10.4 mph 19.6 mph N/A   Scattered Clouds
5:35 PM 64.4 °F - 46.4 °F 52% 30.17 in 7.0 mi North 13.8 mph 19.6 mph N/A   Scattered Clouds
5:55 PM 66.2 °F - 48.2 °F 52% 30.17 in 7.0 mi NNE 13.8 mph 24.2 mph N/A   Mostly Cloudy
6:15 PM 64.4 °F - 46.4 °F 52% 30.17 in 5.0 mi NNE 10.4 mph 19.6 mph N/A   Haze
6:35 PM 62.6 °F - 46.4 °F 55% 30.17 in 7.0 mi NNE 10.4 mph 16.1 mph N/A   Overcast
6:55 PM 62.6 °F - 46.4 °F 55% 30.18 in 7.0 mi North 11.5 mph - N/A   Overcast
7:15 PM 62.6 °F - 46.4 °F 55% 30.18 in 7.0 mi NNE 12.7 mph - N/A   Overcast
7:35 PM 60.8 °F - 46.4 °F 59% 30.19 in 7.0 mi North 8.1 mph 17.3 mph N/A   Overcast
7:55 PM 59.0 °F - 46.4 °F 63% 30.19 in 7.0 mi NNE 12.7 mph - N/A   Scattered Clouds
8:15 PM 59.0 °F - 46.4 °F 63% 30.19 in 7.0 mi NNE 8.1 mph - N/A   Scattered Clouds
8:35 PM 57.2 °F - 46.4 °F 67% 30.20 in 10.0 mi North 5.8 mph - N/A   Mostly Cloudy
8:55 PM 57.2 °F - 46.4 °F 67% 30.20 in 7.0 mi North 6.9 mph - N/A   Overcast
9:15 PM 57.2 °F - 46.4 °F 67% 30.20 in 7.0 mi North 6.9 mph - N/A   Overcast
9:35 PM 55.4 °F - 46.4 °F 72% 30.20 in 7.0 mi North 6.9 mph - N/A   Overcast
9:55 PM 57.2 °F - 46.4 °F 67% 30.21 in 7.0 mi North 6.9 mph 10.4 mph N/A   Overcast
10:15 PM 57.2 °F - 48.2 °F 72% 30.21 in 10.0 mi NNE 10.4 mph 16.1 mph N/A   Overcast
10:35 PM 57.2 °F - 46.4 °F 67% 30.22 in 7.0 mi NNE 11.5 mph 18.4 mph N/A   Overcast
10:55 PM 55.4 °F - 46.4 °F 72% 30.21 in 7.0 mi NNE 15.0 mph 19.6 mph N/A   Overcast
11:15 PM 55.4 °F - 46.4 °F 72% 30.21 in 7.0 mi NNE 17.3 mph 25.3 mph N/A   Overcast
11:35 PM 55.4 °F - 46.4 °F 72% 30.21 in 7.0 mi NNE 11.5 mph 17.3 mph N/A   Overcast
11:55 PM 55.4 °F - 46.4 °F 72% 30.20 in 7.0 mi North 11.5 mph - N/A   Overcast